{"data":{"norad_id":69592,"epoch":"2026-09-20T04:00:03.000096Z","epoch_age_seconds":57728,"freshness":"FRESH","line1":"1 69592U 26140A   26263.16670139 -.00004708  00000+0 -63856-3 0  9997","line2":"2 69592  51.9013 305.5401 0001509 131.9738  74.3003 14.76572004  5252","mean_motion":14.76572004,"eccentricity":0.0001509,"inclination_deg":51.9013,"raan_deg":305.5401,"arg_perigee_deg":131.9738,"mean_anomaly_deg":74.3003,"bstar":-0.00063856,"rev_number":525,"period_min":97.523181808884,"perigee_km":639.10651896344,"apogee_km":641.22464268233,"semimajor_km":7018.3025808229,"source":"CELESTRAK","updated_at":"2026-09-20T09:00:24.998223Z"}}